GW1265 Weather Reports


time (UTC)temp
F
wind
direction
speed
knots
gust
knots
rain 1hr
in
rain 24hr
in
rain mn
in
humidity
%
barometer
mb
20260505235132 72 90 6.1 9.6 0.00 0.00 0.00 10 1002.1
20260505234621 72 90 4.3 11.3 0.00 0.00 0.00 10 1001.8
20260505234112 72 90 6.1 11.3 0.00 0.00 0.00 10 1002.0
20260505233601 72 68 7.0 11.3 0.00 0.00 0.00 10 1002.0
20260505232542 73 90 7.0 12.2 0.00 0.00 0.00 10 1001.9
20260505232031 73 90 6.1 11.3 0.00 0.00 0.00 10 1001.9
20260505231522 73 68 7.0 11.3 0.00 0.00 0.00 10 1001.7
20260505231011 73 68 7.0 11.3 0.00 0.00 0.00 10 1001.9
20260505230501 74 68 6.1 11.3 0.00 0.00 0.00 10 1001.7
20260505225441 74 90 6.1 11.3 0.00 0.00 0.00 10 1001.7
20260505224930 74 90 7.8 9.6 0.00 0.00 0.00 10 1001.6
20260505224420 74 90 7.0 9.6 0.00 0.00 0.00 10 1001.8
20260505223910 75 68 3.5 7.0 0.00 0.00 0.00 10 1001.6
20260505223401 75 90 4.3 9.6 0.00 0.00 0.00 10 1001.8
20260505222850 75 68 6.1 9.6 0.00 0.00 0.00 10 1001.7
20260505222340 75 90 5.2 7.0 0.00 0.00 0.00 10 1001.5
20260505221830 75 90 3.5 7.0 0.00 0.00 0.00 10 1001.5
20260505221320 75 90 4.3 7.0 0.00 0.00 0.00 10 1001.4
20260505220810 75 90 5.2 7.0 0.00 0.00 0.00 10 1001.5
20260505220301 75 68 3.5 6.1 0.00 0.00 0.00 10 1001.5
20260505215750 76 90 3.5 7.0 0.00 0.00 0.00 10 1001.7
20260505215239 76 68 4.3 7.0 0.00 0.00 0.00 10 1001.5
20260505214728 75 90 5.2 6.1 0.00 0.00 0.00 10 1001.3
20260505214227 75 90 2.6 3.5 0.00 0.00 0.00 10 1001.5
20260505213159 76 68 3.5 3.5 0.00 0.00 0.00 10 1001.4
20260505212649 76 68 2.6 5.2 0.00 0.00 0.00 10 1001.5
20260505212139 76 68 3.5 5.2 0.00 0.00 0.00 10 1001.6
20260505211628 76 68 2.6 3.5 0.00 0.00 0.00 10 1001.4
20260505211119 76 90 1.7 3.5 0.00 0.00 0.00 10 1001.4
20260505210609 76 113 2.6 5.2 0.00 0.00 0.00 10 1001.4
20260505210059 76 68 3.5 6.1 0.00 0.00 0.00 10 1001.2
20260505205548 76 90 3.5 6.1 0.00 0.00 0.00 10 1001.2
20260505205038 76 68 3.5 6.1 0.00 0.00 0.00 10 1001.4
20260505204017 76 90 1.7 5.2 0.00 0.00 0.00 10 1001.2
20260505202957 77 90 1.7 5.2 0.00 0.00 0.00 10 1001.4
20260505201938 77 90 2.6 5.2 0.00 0.00 0.00 10 1001.4
20260505201427 77 90 1.7 6.1 0.00 0.00 0.00 10 1001.1
20260505200406 77 135 1.7 6.1 0.00 0.00 0.00 10 1001.1
20260505195346 78 68 2.6 7.0 0.00 0.00 0.00 10 1001.3
20260505194837 77 90 2.6 6.1 0.00 0.00 0.00 10 1001.2
20260505194326 78 68 3.5 6.1 0.00 0.00 0.00 10 1001.3
20260505193817 78 113 2.6 6.1 0.00 0.00 0.00 10 1001.1
20260505193306 78 45 3.5 6.1 0.00 0.00 0.00 10 1001.3
20260505192756 78 68 3.5 6.1 0.00 0.00 0.00 10 1001.4
20260505191736 78 90 3.5 3.5 0.00 0.00 0.00 10 1001.5
20260505191226 78 113 0.9 3.5 0.00 0.00 0.00 10 1001.7
20260505190716 78 68 1.7 3.5 0.00 0.00 0.00 10 1001.7
20260505190205 78 90 2.6 3.5 0.00 0.00 0.00 10 1001.6
20260505185656 78 68 1.7 3.5 0.00 0.00 0.00 10 1001.7
20260505185146 78 68 0.0 5.2 0.00 0.00 0.00 10 1001.8
20260505184635 77 68 2.6 5.2 0.00 0.00 0.00 10 1001.7
20260505183615 78 90 1.7 5.2 0.00 0.00 0.00 10 1001.6
20260505183105 77 68 2.6 5.2 0.00 0.00 0.00 10 1001.3
20260505182556 77 338 0.9 5.2 0.00 0.00 0.00 10 1001.9
20260505182046 77 90 0.9 5.2 0.00 0.00 0.00 10 1001.8
20260505181535 77 23 0.9 3.5 0.00 0.00 0.00 10 1001.8
20260505181025 78 45 0.9 3.5 0.00 0.00 0.00 10 1001.7
20260505180004 78 113 0.0 3.5 0.00 0.00 0.00 10 1001.8
20260505175455 78 68 1.7 3.5 0.00 0.00 0.00 10 1001.7
20260505174944 77 45 1.7 3.5 0.00 0.00 0.00 10 1001.8
20260505174434 77 23 1.7 5.2 0.00 0.00 0.00 10 1001.8
20260505173924 77 90 1.7 5.2 0.00 0.00 0.00 10 1001.9
20260505173414 76 45 2.6 3.5 0.00 0.00 0.00 10 1002.1
20260505172903 76 90 0.9 3.5 0.00 0.00 0.00 10 1002.0
20260505172354 75 68 1.7 5.2 0.00 0.00 0.00 10 1002.1
20260505171333 75 45 3.5 6.1 0.00 0.00 0.00 10 1002.0
20260505170824 75 68 1.7 7.0 0.00 0.00 0.00 10 1002.5
20260505170313 74 113 3.5 7.0 0.00 0.00 0.00 10 1002.1
20260505165253 74 68 3.5 5.2 0.00 0.00 0.00 10 1002.2
20260505164743 74 23 1.7 5.2 0.00 0.00 0.00 10 1002.5
20260505164232 74 23 2.6 5.2 0.00 0.00 0.00 10 1002.6
20260505163212 74 68 1.7 6.1 0.00 0.00 0.00 10 1002.5
20260505162702 74 45 1.7 6.1 0.00 0.00 0.00 10 1002.5
20260505162152 74 45 4.3 6.1 0.00 0.00 0.00 10 1002.7
20260505161642 74 45 0.9 5.2 0.00 0.00 0.00 10 1002.8
20260505161135 73 68 0.9 9.6 0.00 0.00 0.00 10 1003.0
20260505160622 73 45 4.3 9.6 0.00 0.00 0.00 10 1003.0
20260505160112 73 45 6.1 7.8 0.00 0.00 0.00 10 1003.2
20260505152501 72 315 1.7 7.0 0.00 0.00 0.00 10 1003.1
20260505151951 72 68 5.2 7.8 0.00 0.00 0.00 10 1003.1
20260505151441 71 68 4.3 7.8 0.00 0.00 0.00 10 1003.1
20260505150421 71 0 5.2 13.0 0.00 0.00 0.00 10 1003.3
20260505124957 67 23 6.1 7.8 0.00 0.00 0.00 10 1004.0
20260505123937 67 45 3.5 7.0 0.00 0.00 0.00 10 1003.8
20260505123428 66 0 1.7 7.8 0.00 0.00 0.00 10 1003.9
20260505122917 66 23 6.1 7.8 0.00 0.00 0.00 10 1003.8
20260505122407 66 0 3.5 6.1 0.00 0.00 0.00 10 1004.0
20260505121857 66 0 3.5 6.1 0.00 0.00 0.00 10 1003.9
20260505121347 65 68 1.7 6.1 0.00 0.00 0.00 10 1003.6
20260505120836 65 23 1.7 7.0 0.00 0.00 0.00 10 1003.7
20260505120326 65 45 1.7 7.0 0.00 0.00 0.00 10 1003.6
20260505115816 65 23 3.5 7.0 0.00 0.00 0.00 10 1003.6
20260505115306 65 45 3.5 7.0 0.00 0.00 0.00 10 1003.4
20260505114756 65 23 4.3 7.0 0.00 0.00 0.00 10 1003.5
20260505114246 65 0 3.5 7.0 0.00 0.00 0.00 10 1003.2
20260505113736 65 23 4.3 7.0 0.00 0.00 0.00 10 1003.4
20260505113226 65 23 3.5 6.1 0.00 0.00 0.00 10 1003.3
20260505112716 65 23 2.6 6.1 0.00 0.00 0.00 10 1003.1
20260505112206 65 23 1.7 5.2 0.00 0.00 0.00 10 1003.3
20260505111657 65 68 3.5 5.2 0.00 0.00 0.00 10 1003.0
20260505111146 63 68 3.5 5.2 0.00 0.00 0.00 10 1002.9
20260505110635 65 45 2.6 5.2 0.00 0.00 0.00 10 1003.2
20260505110126 65 68 3.5 6.1 0.00 0.00 0.00 10 1003.2
20260505102004 65 0 3.5 6.1 0.00 0.00 0.00 10 1002.9
20260505101455 65 23 3.5 7.0 0.00 0.00 0.00 10 1002.8
20260505100944 65 0 5.2 7.0 0.00 0.00 0.00 10 1002.9
20260505100434 65 0 4.3 6.1 0.00 0.00 0.00 10 1002.7
20260505095924 65 23 4.3 6.1 0.00 0.00 0.00 10 1002.8
20260505095414 65 338 4.3 6.1 0.00 0.00 0.00 10 1002.5
20260505094353 65 0 3.5 6.1 0.00 0.00 0.00 10 1002.4
20260505093844 65 0 4.3 5.2 0.00 0.00 0.00 10 1002.6
20260505093334 65 0 4.3 5.2 0.00 0.00 0.00 10 1002.2
20260505092823 65 0 3.5 5.2 0.00 0.00 0.00 10 1002.5
20260505092313 65 338 3.5 5.2 0.00 0.00 0.00 10 1002.5
20260505091803 65 0 3.5 5.2 0.00 0.00 0.00 10 1002.4
20260505091253 65 0 3.5 5.2 0.00 0.00 0.00 10 1002.3
20260505090742 64 338 3.5 5.2 0.00 0.00 0.00 10 1002.2
20260505085722 64 338 3.5 7.0 0.00 0.00 0.00 10 1002.1
20260505085212 64 338 3.5 7.0 0.00 0.00 0.00 10 1002.3
20260505084702 64 0 3.5 6.1 0.00 0.00 0.00 10 1001.8
20260505084152 64 0 4.3 6.1 0.00 0.00 0.00 10 1002.0
20260505083131 64 0 5.2 7.0 0.00 0.00 0.00 10 1001.7
20260505082622 64 0 4.3 7.8 0.00 0.00 0.00 10 1001.9
20260505082111 65 23 6.1 7.8 0.00 0.00 0.00 10 1001.7
20260505081601 65 23 4.3 7.8 0.00 0.00 0.00 10 1001.8
20260505081051 65 0 4.3 7.0 0.00 0.00 0.00 10 1001.9
20260505080542 65 0 5.2 7.8 0.00 0.00 0.00 10 1002.1
20260505080031 65 0 5.2 7.8 0.00 0.00 0.00 10 1002.1
20260505075521 65 338 4.3 7.0 0.00 0.00 0.00 10 1002.0
20260505075011 65 23 5.2 7.8 0.00 0.00 0.00 10 1001.9
20260505072930 65 23 5.2 7.0 0.00 0.00 0.00 10 1002.1
20260505072420 65 23 4.3 6.1 0.00 0.00 0.00 10 1001.8
20260505071911 65 0 3.5 7.0 0.00 0.00 0.00 10 1002.1
20260505070851 65 0 5.2 7.0 0.00 0.00 0.00 10 1002.1
20260505070338 65 0 6.1 0.0 0.00 0.00 0.00 10 1002.1
20260505070145 65 0 6.1 0.0 0.00 0.00 0.00 10 1002.1
20260505065519 65 338 7.0 11.3 0.00 0.00 0.00 10 1002.3
20260505064458 65 338 7.0 11.3 0.00 0.00 0.00 10 1002.2
20260505063947 65 23 7.0 11.3 0.00 0.00 0.00 10 1002.1
20260505062927 65 0 7.0 11.3 0.00 0.00 0.00 10 1001.8
20260505062418 65 338 7.0 11.3 0.00 0.00 0.00 10 1002.0
20260505061906 65 0 5.2 11.3 0.00 0.00 0.00 10 1002.1
20260505061357 65 0 7.0 13.0 0.00 0.00 0.00 10 1002.0
20260505055827 65 0 7.0 11.3 0.00 0.00 0.00 10 1002.1
20260505055317 65 338 7.0 11.3 0.00 0.00 0.00 10 1002.2
20260505054806 65 338 7.0 12.2 0.00 0.00 0.00 10 1002.1
20260505053746 64 338 6.1 11.3 0.00 0.00 0.00 10 1002.2
20260505053236 64 0 6.1 11.3 0.00 0.00 0.00 10 1002.1
20260505052726 64 23 5.2 9.6 0.00 0.00 0.00 10 1002.0
20260505052219 64 23 7.0 9.6 0.00 0.00 0.00 10 1002.2
20260505051707 64 23 6.1 9.6 0.00 0.00 0.00 10 1002.1
20260505051155 64 45 7.0 9.6 0.00 0.00 0.00 10 1002.2
20260505050645 64 23 6.1 9.6 0.00 0.00 0.00 10 1001.9
20260505050136 64 68 7.8 9.6 0.00 0.00 0.00 10 1002.0
20260505041504 63 45 6.1 7.0 0.00 0.00 0.00 10 1002.5
20260505040444 63 338 5.2 11.3 0.00 0.00 0.00 10 1002.6
20260505035934 64 0 7.0 11.3 0.00 0.00 0.00 10 1002.6
20260505035424 64 0 7.0 11.3 0.00 0.00 0.00 10 1002.5
20260505034913 64 45 8.7 11.3 0.00 0.00 0.00 10 1002.4
20260505034404 64 23 8.7 12.2 0.00 0.00 0.00 10 1002.3
20260505033854 64 0 9.6 13.9 0.00 0.00 0.00 10 1002.3
20260505033343 64 23 8.7 13.9 0.00 0.00 0.00 10 1002.1
20260505032833 64 45 9.6 13.0 0.00 0.00 0.00 10 1002.2
20260505032324 65 23 10.4 13.0 0.00 0.00 0.00 10 1002.3
20260505031303 64 23 11.3 14.8 0.00 0.00 0.00 10 1002.2
20260505030753 64 23 10.4 14.8 0.00 0.00 0.00 10 1002.1
20260505030243 64 23 12.2 13.9 0.00 0.00 0.00 10 1002.1
20260505025733 64 23 9.6 13.0 0.00 0.00 0.00 10 1002.2
20260505024203 64 23 9.6 13.9 0.00 0.00 0.00 10 1002.0
20260505023141 64 45 7.8 12.2 0.00 0.00 0.00 10 1002.0
20260505022632 64 23 8.7 11.3 0.00 0.00 0.00 10 1002.2
20260505022123 64 23 7.0 9.6 0.00 0.00 0.00 10 1001.9
20260505021613 63 23 7.0 12.2 0.00 0.00 0.00 10 1001.9
20260505021102 63 45 7.8 12.2 0.00 0.00 0.00 10 1001.8
20260505020043 64 23 9.6 11.3 0.00 0.00 0.00 10 1001.7
20260505015021 64 23 9.6 11.3 0.00 0.00 0.00 10 1001.8
20260505014513 64 45 9.6 11.3 0.00 0.00 0.00 10 1001.9
20260505014002 64 23 7.0 9.6 0.00 0.00 0.00 10 1001.6
20260505013451 64 23 7.0 7.8 0.00 0.00 0.00 10 1001.8
20260505012431 64 45 7.0 9.6 0.00 0.00 0.00 10 1001.9
20260505011921 64 45 7.8 9.6 0.00 0.00 0.00 10 1001.8
20260505010900 64 90 8.7 9.6 0.00 0.00 0.00 10 1001.7
20260505010350 64 68 7.8 9.6 0.00 0.00 0.00 10 1001.7
20260505005840 65 68 7.8 9.6 0.00 0.00 0.00 10 1001.7
20260505005330 65 45 7.0 7.8 0.00 0.00 0.00 10 1001.5
20260505004820 65 68 6.1 9.6 0.00 0.00 0.00 10 1001.5
20260505004310 66 45 7.8 9.6 0.00 0.00 0.00 10 1001.6
20260505003250 66 45 8.7 9.6 0.00 0.00 0.00 10 1001.5
20260505002739 66 68 8.7 9.6 0.00 0.00 0.00 10 1001.5
20260505002229 66 45 9.6 9.6 0.00 0.00 0.00 10 1001.5
20260505001719 66 23 7.8 9.6 0.00 0.00 0.00 10 1001.4
20260505001208 65 45 7.0 7.8 0.00 0.00 0.00 10 1001.5
20260505000700 65 68 4.3 6.1 0.00 0.00 0.00 10 1001.7
20260505000149 65 68 5.2 7.0 0.00 0.00 0.00 10 1001.4
20260504235639 66 45 6.1 7.0 0.00 0.00 0.00 10 1001.6